FW1924 Weather Reports


Display with metric or nautical units.
time (UTC)temp
F
wind
direction
speed
MPH
gust
MPH
rain 1hr
in
rain 24hr
in
rain mn
in
humidity
%
barometer
mb
20260902231636 82 191 13.0 28.0 0.00 0.01 0.01 16 1001.1
20260902230025 82 223 4.0 15.0 0.00 0.01 0.01 15 1001.5
20260902224516 82 180 14.0 25.0 0.00 0.01 0.01 15 1001.3
20260902223009 83 225 9.0 26.0 0.00 0.01 0.01 15 1001.3
20260902221600 83 150 12.0 26.0 0.00 0.01 0.01 18 1001.4
20260902220101 82 205 11.0 20.0 0.00 0.01 0.01 17 1001.6
20260902214552 82 152 2.0 19.0 0.00 0.01 0.01 17 1001.7
20260902213045 83 184 11.0 20.0 0.00 0.01 0.01 15 1001.9
20260902211534 84 150 8.0 22.0 0.00 0.01 0.01 17 1001.8
20260902210030 84 164 17.0 30.0 0.00 0.01 0.01 16 1001.8
20260902204518 84 144 11.0 31.0 0.00 0.01 0.01 22 1001.9
20260902203004 83 158 17.0 36.0 0.00 0.01 0.01 22 1002.1
20260902201556 83 200 16.0 30.0 0.00 0.01 0.01 23 1002.2
20260902200054 82 151 11.0 33.0 0.00 0.01 0.01 24 1002.4
20260902194537 82 168 20.0 28.0 0.00 0.01 0.01 24 1002.4
20260902193026 82 224 11.0 28.0 0.00 0.01 0.01 25 1002.6
20260902191532 81 149 19.0 28.0 0.00 0.01 0.01 26 1002.8
20260902190005 81 142 19.0 30.0 0.00 0.01 0.01 27 1003.0
20260902184601 80 186 15.0 35.0 0.00 0.01 0.01 29 1003.2
20260902183045 80 167 16.0 37.0 0.00 0.01 0.01 27 1003.6
20260902181543 79 155 20.0 34.0 0.00 0.01 0.01 28 1003.6
20260902180038 78 130 20.0 28.0 0.00 0.01 0.01 31 1003.6
20260902174528 77 163 13.0 30.0 0.00 0.02 0.01 34 1003.8
20260902173017 76 171 14.0 30.0 0.00 0.02 0.01 37 1003.9
20260902171515 76 153 16.0 37.0 0.00 0.02 0.01 37 1004.2
20260902170005 74 186 17.0 25.0 0.00 0.02 0.01 36 1004.1
20260902164553 74 184 23.0 35.0 0.00 0.02 0.01 36 1004.1
20260902163059 73 201 17.0 32.0 0.00 0.02 0.01 40 1004.0
20260902161541 72 94 11.0 21.0 0.00 0.02 0.01 45 1004.1
20260902160038 71 157 8.0 19.0 0.00 0.02 0.01 47 1004.2
20260902154528 71 113 9.0 18.0 0.00 0.03 0.01 49 1004.2
20260902153022 70 144 8.0 23.0 0.01 0.03 0.01 50 1004.1
20260902151506 68 111 8.0 21.0 0.01 0.03 0.01 52 1004.1
20260902150001 67 184 12.0 22.0 0.01 0.03 0.01 55 1004.1
20260902144552 66 103 9.0 19.0 0.01 0.03 0.01 58 1003.8
20260902143039 65 161 8.0 18.0 0.00 0.02 0.00 60 1003.8
20260902141529 63 152 9.0 17.0 0.00 0.02 0.00 64 1003.8
20260902140019 62 169 5.0 15.0 0.00 0.02 0.00 67 1003.7
20260902134508 61 188 0.0 8.0 0.00 0.02 0.00 67 1003.4
20260902133008 62 173 0.0 10.0 0.00 0.02 0.00 65 1003.4
20260902131523 62 148 1.0 6.0 0.00 0.02 0.00 61 1003.6
20260902130032 62 180 0.0 10.0 0.00 0.02 0.00 60 1003.6
20260902124519 62 205 1.0 10.0 0.00 0.02 0.00 58 1003.6
20260902123021 63 179 2.0 7.0 0.00 0.02 0.00 57 1003.6
20260902121507 63 201 0.0 5.0 0.00 0.02 0.00 55 1003.7
20260902120108 64 176 0.0 7.0 0.00 0.02 0.00 54 1003.6
20260902114556 64 194 2.0 9.0 0.00 0.02 0.00 53 1003.6
20260902113055 65 226 4.0 11.0 0.00 0.02 0.00 52 1003.7
20260902111555 65 186 7.0 12.0 0.00 0.02 0.00 51 1003.6
20260902110038 65 192 4.0 11.0 0.00 0.02 0.00 50 1003.7
20260902104551 65 198 5.0 11.0 0.00 0.02 0.00 50 1003.6
20260902103044 65 173 7.0 15.0 0.00 0.02 0.00 51 1003.6
20260902101536 65 186 8.0 13.0 0.00 0.02 0.00 52 1003.7
20260902100037 64 194 4.0 11.0 0.00 0.02 0.00 52 1003.9
20260902094532 64 170 2.0 9.0 0.00 0.03 0.00 50 1004.1
20260902093023 65 195 0.0 10.0 0.00 0.03 0.00 50 1004.3
20260902091522 65 186 6.0 11.0 0.00 0.03 0.00 50 1004.2
20260902090021 65 178 9.0 15.0 0.00 0.03 0.00 53 1004.1
20260902084512 66 184 6.0 16.0 0.00 0.03 0.00 55 1004.1
20260902083004 66 169 7.0 18.0 0.00 0.03 0.00 55 1004.1
20260902081557 66 151 11.0 17.0 0.00 0.03 0.00 53 1004.1
20260902080053 66 173 12.0 18.0 0.00 0.03 0.00 52 1004.2
20260902074550 66 159 1.0 11.0 0.00 0.04 0.00 50 1004.1
20260902073037 66 124 0.0 7.0 0.00 0.04 0.00 48 1004.1
20260902071528 67 165 6.0 14.0 0.00 0.04 0.00 47 1004.1
20260902070020 67 150 4.0 12.0 0.00 0.04 0.00 47 1004.0
20260902064510 66 151 10.0 16.0 0.00 0.04 0.00 47 1004.0
20260902063006 65 173 8.0 16.0 0.00 0.04 0.00 49 1003.8
20260902061556 65 193 0.0 0.0 0.00 0.04 0.00 54 1003.8
20260902060054 66 182 0.0 7.0 0.00 0.04 0.00 55 1003.8
20260902054548 66 194 1.0 8.0 0.00 0.04 0.04 54 1003.9
20260902053039 66 166 0.0 8.0 0.00 0.04 0.04 54 1004.0
20260902051544 67 185 0.0 9.0 0.00 0.04 0.04 53 1004.0
20260902050132 67 168 0.0 4.0 0.00 0.04 0.04 53 1004.1
20260902044522 68 173 2.0 11.0 0.00 0.04 0.04 52 1004.1
20260902043028 68 215 0.0 9.0 0.00 0.04 0.04 52 1004.0
20260902041507 68 197 1.0 10.0 0.00 0.04 0.04 52 1003.9
20260902040007 69 194 0.0 6.0 0.00 0.04 0.04 51 1004.1
20260902034601 70 182 0.0 5.0 0.00 0.05 0.04 53 1003.9
20260902033052 71 178 3.0 10.0 0.00 0.05 0.04 53 1003.8
20260902031548 71 165 5.0 12.0 0.00 0.05 0.04 52 1003.8
20260902030034 72 158 8.0 14.0 0.00 0.05 0.04 51 1003.5
20260902024543 72 200 5.0 14.0 0.00 0.06 0.04 50 1003.4
20260902023027 73 186 6.0 14.0 0.00 0.06 0.04 49 1003.4
20260902021526 73 155 5.0 14.0 0.00 0.06 0.04 47 1003.4
20260902020026 74 177 7.0 16.0 0.00 0.06 0.04 46 1003.4
20260902014518 74 148 6.0 16.0 0.00 0.06 0.04 45 1003.4
20260902013009 75 153 10.0 19.0 0.00 0.06 0.04 43 1003.4
20260902011601 75 170 7.0 19.0 0.00 0.06 0.04 44 1003.5
20260902010009 76 119 6.0 21.0 0.00 0.06 0.04 44 1003.6
20260902004513 77 108 13.0 24.0 0.00 0.07 0.04 42 1003.7
20260902003005 77 150 11.0 21.0 0.00 0.07 0.04 41 1004.0
20260902001556 78 144 12.0 19.0 0.00 0.07 0.04 41 1004.1
20260902000047 78 180 14.0 22.0 0.00 0.07 0.04 41 1004.3
20260901234539 78 155 11.0 25.0 0.00 0.09 0.04 40 1004.3
20260901233038 79 148 14.0 21.0 0.00 0.09 0.04 39 1004.5